Hourly Data Report for May 03, 2021

WINNIPEG THE FORKS
MANITOBA
Current Station Operator: ECCC - MSC

49°53'18.008" N
97°07'46.007" W
230.00 m
5023262
71579
XWN

Download Data

Hourly Data (May 2021)
Hourly Data Report for May 3, 2021
TIME
LST
Temp Definition
°C
Dew Point Definition
°C
Rel Hum Definition
%
Precip. Amount Definition
mm

Wind Dir Definition
10's deg

Wind Spd Definition
km/h
Visibility Definition
km
Stn Press Definition
kPa
Hmdx Definition


Wind Chill Definition


Weather Definition


00:00 3.8 -2.8 62 0.0 35 13   98.42     LegendNANA
01:00 3.6 -2.8 63 0.0 32 14   98.43     LegendNANA
02:00 3.4 -2.8 64 0.0 33 11   98.46     LegendNANA
03:00 3.3 -2.6 65 0.0 33 11   98.49     LegendNANA
04:00 2.9 -2.7 66 0.0 32 12   98.54     LegendNANA
05:00 2.8 -2.7 67 0.0 33 12   98.58     LegendNANA
06:00 2.2 -2.9 69 0.0 32 9   98.64     LegendNANA
07:00 2.9 -2.7 66 0.0 33 10   98.70     LegendNANA
08:00 3.8 -2.8 62 0.0 34 12   98.73     LegendNANA
09:00 5.4 -2.8 56 0.0 32 12   98.73     LegendNANA
10:00 5.2 -3.1 55 0.0 33 12   98.76     LegendNANA
11:00 5.9 -3.9 49 0.0 34 13   98.79     LegendNANA
12:00 5.9 -3.2 52 0.0 32 13   98.82     LegendNANA
13:00 6.6 -2.2 53 0.0 33 10   98.82     LegendNANA
14:00 6.8 -2.8 50 0.0 35 15   98.83     LegendNANA
15:00 7.3 -5.9 39 0.0 35 13   98.84     LegendNANA
16:00 7.2 -6.9 36 0.0 34 13   98.87     LegendNANA
17:00 7.6 -7.7 33 0.0 36 11   98.91     LegendNANA
18:00 7.5 -7.8 33 0.0 35 14   98.94     LegendNANA
19:00 6.3 -7.3 37 0.0 34 13   98.99     LegendNANA
20:00 5.5 -6.9 40 0.0 35 13   99.05     LegendNANA
21:00 4.8 -6.4 44 0.0 34 8   99.09     LegendNANA
22:00 4.0 -6.2 48 0.0 34 7   99.14     LegendNANA
23:00 3.5 -6.1 49 0.0 32 5   99.14     LegendNANA

Notes on Data Quality.

Legend

  • E = Estimated
  • M = Missing
  • NA = Not Available*
  • [empty] = Indicates an unobserved value
Date modified: